Sidney, NE

8:30 AM MDT on May 27, 2017 (GMT -0600)
Sidney Municipal

Weather History for KSNY - March, 2014

Change the Weather History Date:

Saturday, March 15, 2014

  Actual Average Record
Temperature  
Mean Temperature 40 °F 39 °F  
Max Temperature 48 °F 53 °F 81 °F (2015)
Min Temperature 31 °F 25 °F 2 °F (1956)
Degree Days  
Heating Degree Days 25 26  
Month to date heating degree days 423 417  
Since 1 July heating degree days 5412 4999  
Cooling Degree Days 0 0  
Month to date cooling degree days 0 0  
Year to date cooling degree days 0 0  
Moisture  
Dew Point 30 °F    
Average Humidity 67    
Maximum Humidity 89    
Minimum Humidity 45    
Precipitation  
Precipitation 0.03 in 0.04 in 0.12 in (1986)
Month to date precipitation 0.09 0.41  
Year to date precipitation 1.04 0.93  
Sea Level Pressure  
Sea Level Pressure 30.09 in    
Wind  
Wind Speed 21 mph (NNW)    
Max Wind Speed 38 mph    
Max Gust Speed 45 mph    
Visibility 9 miles    
Events Rain , Snow    
T = Trace of Precipitation, MM = Missing Value Source: NWS Daily Summary

Daily Weather History Graph

Daily Weather History Graph

Search for Another Location

Airport or City:

Trip Planner

Search our weather history database for the weather conditions in past years. The results will help you decide how hot, cold, wet, or windy it might be!

Date:

Astronomy

Mar. 15, 2014 Rise Set
Actual Time 7:03 AM MDT 6:58 PM MDT
Civil Twilight 6:36 AM MDT 7:26 PM MDT
Nautical Twilight 6:04 AM MDT 7:58 PM MDT
Astronomical Twilight 5:31 AM MDT 8:30 PM MDT
Moon 6:20 PM MDT (3/15) 6:16 AM MDT (3/15)
Length of Visible Light 12h 50m
Length of Day
11h 55m
Waxing Gibbous, 99% of the Moon is Illuminated
Mar 15
Waxing Gibbous
Mar 16
Full
Mar 23
Last Quarter
Mar 30
New
Apr 7
First Quarter

Hourly Weather History & Observations

Time (MDT) Temp. Windchill Dew Point Humidity Pressure Visibility Wind Dir Wind Speed Gust Speed Precip Events Conditions
12:53 AM 34.0 °F 26.0 °F 21.9 °F 61% 29.81 in 10.0 mi WNW 10.4 mph - N/A   Clear
1:53 AM 33.1 °F 23.4 °F 21.9 °F 64% 29.81 in 10.0 mi WNW 13.8 mph - N/A   Clear
2:53 AM 39.9 °F 32.5 °F 21.9 °F 49% 29.76 in 10.0 mi West 12.7 mph - N/A   Clear
3:53 AM 42.1 °F 33.9 °F 23.0 °F 47% 29.75 in 10.0 mi West 17.3 mph - N/A   Clear
4:53 AM 41.0 °F 32.8 °F 25.0 °F 53% 29.75 in 10.0 mi WNW 16.1 mph - N/A   Clear
5:53 AM 41.0 °F 31.4 °F 28.0 °F 60% 29.78 in 10.0 mi WNW 21.9 mph - N/A   Clear
6:53 AM 41.0 °F 31.9 °F 30.0 °F 65% 29.81 in 10.0 mi WNW 19.6 mph - N/A   Clear
7:53 AM 42.1 °F 33.6 °F 30.9 °F 65% 29.87 in 10.0 mi NW 18.4 mph - N/A   Clear
8:53 AM 45.0 °F 36.9 °F 32.0 °F 60% 29.91 in 10.0 mi NNW 20.7 mph - N/A   Mostly Cloudy
9:53 AM 46.0 °F 36.9 °F 27.0 °F 47% 29.95 in 10.0 mi North 28.8 mph 35.7 mph N/A   Overcast
10:53 AM 43.0 °F 31.8 °F 32.0 °F 65% 30.01 in 10.0 mi NNW 34.5 mph 41.4 mph N/A   Overcast
11:33 AM 39.0 °F 26.8 °F 33.1 °F 79% 30.02 in 10.0 mi NNW 32.2 mph 40.3 mph 0.00 in Rain Light Rain
11:53 AM 37.0 °F 24.9 °F 33.1 °F 86% 30.09 in 7.0 mi NNW 27.6 mph 41.4 mph 0.00 in Snow Light Snow
12:06 PM 37.0 °F 26.2 °F 33.1 °F 86% 30.04 in 8.0 mi NW 21.9 mph 34.5 mph 0.00 in   Overcast
12:23 PM 37.0 °F 25.1 °F 33.1 °F 86% 30.05 in 10.0 mi NNW 26.5 mph 36.8 mph 0.00 in   Overcast
12:53 PM 37.9 °F 25.9 °F 33.1 °F 83% 30.11 in 10.0 mi NW 28.8 mph 35.7 mph 0.00 in Rain Light Rain
1:53 PM 37.9 °F 26.6 °F 33.1 °F 83% 30.12 in 10.0 mi NNW 25.3 mph 39.1 mph 0.00 in Rain Light Rain
2:04 PM 37.0 °F 25.9 °F 33.1 °F 86% 30.07 in 9.0 mi NNW 23.0 mph 35.7 mph 0.00 in Rain Light Rain
2:53 PM 36.0 °F 23.5 °F 32.0 °F 86% 30.14 in 2.5 mi NNW 27.6 mph - 0.01 in Snow Light Snow
3:14 PM 36.0 °F 23.5 °F 33.1 °F 89% 30.11 in 3.0 mi NNW 27.6 mph 35.7 mph 0.00 in Snow Light Snow
3:53 PM 37.9 °F 26.6 °F 34.0 °F 86% 30.14 in 9.0 mi North 25.3 mph - 0.01 in Rain Light Rain
4:53 PM 37.0 °F 25.6 °F 34.0 °F 89% 30.19 in 8.0 mi NNW 24.2 mph - 0.01 in Rain Light Rain
5:53 PM 37.0 °F 26.2 °F 34.0 °F 89% 30.22 in 10.0 mi North 21.9 mph 27.6 mph 0.00 in   Overcast
6:14 PM 37.0 °F 26.2 °F 34.0 °F 89% 30.19 in 10.0 mi North 21.9 mph - N/A   Overcast
6:37 PM 37.9 °F 26.8 °F 33.1 °F 83% 30.20 in 10.0 mi NNW 24.2 mph - N/A   Overcast
6:50 PM 37.4 °F 26.9 °F 33.8 °F 87% 30.20 in 10.0 mi North 20.7 mph - N/A   Overcast
6:53 PM 37.0 °F 26.4 °F 33.1 °F 86% 30.23 in 10.0 mi North 20.7 mph - N/A   Overcast
7:53 PM 37.9 °F 27.3 °F 30.9 °F 76% 30.24 in 10.0 mi NNW 21.9 mph - N/A   Overcast
8:53 PM 37.0 °F 26.2 °F 28.9 °F 73% 30.26 in 10.0 mi NNW 21.9 mph 31.1 mph N/A   Overcast
9:32 PM 36.0 °F 25.6 °F 30.0 °F 79% 30.26 in 7.0 mi North 18.4 mph - 0.00 in Snow Light Snow
9:40 PM 35.1 °F 24.1 °F 30.9 °F 85% 30.27 in 5.0 mi North 19.6 mph - 0.00 in Snow Light Snow
9:53 PM 35.1 °F 24.5 °F 32.0 °F 89% 30.29 in 9.0 mi NNE 18.4 mph - 0.00 in   Overcast
10:09 PM 34.0 °F 23.4 °F 30.0 °F 85% 30.27 in 10.0 mi North 17.3 mph - N/A   Scattered Clouds
10:30 PM 34.0 °F 23.4 °F 30.0 °F 85% 30.27 in 10.0 mi NNE 17.3 mph - N/A   Mostly Cloudy
10:53 PM 34.0 °F 24.6 °F 30.0 °F 85% 30.32 in 10.0 mi North 13.8 mph - N/A   Overcast
11:09 PM 33.1 °F 22.2 °F 30.0 °F 89% 30.29 in 10.0 mi North 17.3 mph - N/A   Overcast
11:53 PM 33.1 °F 23.0 °F 28.9 °F 85% 30.36 in 10.0 mi NNE 15.0 mph - N/A   Overcast